This is the latest recevied weather packets stored in our database for station/object G0TGD-10. If no packets are shown the sender has not sent any weather packets the latest 10 day(s).
| Time | Temp. | Humidity | Pressure | Rain* | Wind** | Luminosity | Snow |
|---|---|---|---|---|---|---|---|
| 1777810861 | 13.89° C | 76% | 1008.3 hPa | - | - | - | - |
| 1777809961 | 14.44° C | 76% | 1008.2 hPa | - | - | - | - |
| 1777809061 | 15° C | 74% | 1008.1 hPa | - | - | - | - |
| 1777808161 | 14.44° C | 74% | 1008.1 hPa | - | - | - | - |
| 1777807261 | 14.44° C | 73% | 1008.2 hPa | - | - | - | - |
| 1777806361 | 14.44° C | 74% | 1008.1 hPa | - | - | - | - |
| 1777805460 | 14.44° C | 74% | 1008.1 hPa | - | - | - | - |
| 1777804560 | 14.44° C | 74% | 1008 hPa | - | - | - | - |
| 1777803660 | 13.89° C | 75% | 1008 hPa | - | - | - | - |
| 1777802760 | 14.44° C | 74% | 1008 hPa | - | - | - | - |
| 1777801860 | 13.89° C | 75% | 1007.9 hPa | - | - | - | - |
| 1777800960 | 12.78° C | 76% | 1007.9 hPa | - | - | - | - |
| 1777800060 | 12.78° C | 76% | 1007.9 hPa | - | - | - | - |
| 1777799160 | 12.78° C | 75% | 1007.7 hPa | - | - | - | - |
| 1777798260 | 12.78° C | 75% | 1007.7 hPa | - | - | - | - |
| 1777797360 | 12.22° C | 74% | 1007.8 hPa | - | - | - | - |
| 1777796459 | 12.22° C | 72% | 1007.8 hPa | - | - | - | - |
| 1777795559 | 12.78° C | 72% | 1007.8 hPa | - | - | - | - |
| 1777794659 | 12.22° C | 72% | 1008 hPa | - | - | - | - |
| 1777793759 | 12.22° C | 71% | 1008 hPa | - | - | - | - |
| 1777792859 | 12.22° C | 72% | 1008 hPa | - | - | - | - |
| 1777791959 | 12.22° C | 71% | 1007.8 hPa | - | - | - | - |
| 1777791059 | 12.22° C | 71% | 1007.5 hPa | - | - | - | - |
| 1777790159 | 11.67° C | 71% | 1007.5 hPa | - | - | - | - |
| 1777789259 | 11.67° C | 71% | 1007.4 hPa | - | - | - | - |
* Rain since midnight (hover to see other rain measurements)
** Current wind speed in m/s (hover to see current wind gust speed)